Weather History for Lincoln, CA

Change the Weather History Date:

Sunday, August 25, 2013

  Actual Average (KAUN) Record (KAUN)
Temperature  
Mean Temperature 74 °F -  
Max Temperature 87 °F 89 °F 102 °F (2010)
Min Temperature 62 °F 59 °F 49 °F (1963)
Cooling Degree Days 10    
Growing Degree Days 24 (Base 50)    
Moisture  
Dew Point 54 °F    
Average Humidity 54    
Maximum Humidity 82    
Minimum Humidity 25    
Precipitation  
Precipitation 0.00 in - - ()
Sea Level Pressure  
Sea Level Pressure 29.87 in    
Wind  
Wind Speed 11 mph (South)    
Max Wind Speed 17 mph    
Max Gust Speed 21 mph    
Visibility 10 miles    
Events      
Averages and records for this station are not official NWS values.
T = Trace of Precipitation, MM = Missing Value Source: NWS Daily Summary

Daily Weather History Graph

Daily Weather History Graph

Search for Another Location

Airport:

Trip Planner

Search our weather history database for the weather conditions in past years. The results will help you decide how hot, cold, wet, or windy it might be!

Date:

Astronomy

Aug. 25, 2013 Rise Set
Actual Time 6:28 AM PDT 7:45 PM PDT
Civil Twilight 6:00 AM PDT 8:13 PM PDT
Nautical Twilight 5:27 AM PDT 8:46 PM PDT
Astronomical Twilight 4:52 AM PDT 9:21 PM PDT
Moon 10:23 PM PDT (8/25) 11:32 AM PDT (8/25)
Length of Visible Light 14h 12m
Length of Day
13h 17m
Waning Gibbous, 75% of the Moon is Illuminated
Aug 25
Waning Gibbous
Aug 28
Last Quarter
Sep 5
New
Sep 12
First Quarter
Sep 19
Full

Hourly Weather History & Observations

Time (PDT) Temp. Heat Index Dew Point Humidity Pressure Visibility Wind Dir Wind Speed Gust Speed Precip Events Conditions
12:15 AM 68.0 °F - 53.6 °F 60% 29.83 in 10.0 mi SE 13.8 mph - N/A   Clear
12:35 AM 68.0 °F - 53.6 °F 60% 29.83 in 10.0 mi SE 13.8 mph - N/A   Clear
12:55 AM 68.0 °F - 53.6 °F 60% 29.83 in 10.0 mi SE 13.8 mph - N/A   Clear
1:15 AM 68.0 °F - 55.4 °F 64% 29.84 in 10.0 mi SE 12.7 mph - N/A   Clear
1:35 AM 66.2 °F - 55.4 °F 68% 29.84 in 10.0 mi SE 17.3 mph - N/A   Clear
1:55 AM 66.2 °F - 55.4 °F 68% 29.84 in 10.0 mi SE 16.1 mph 20.7 mph N/A   Clear
2:15 AM 64.4 °F - 55.4 °F 73% 29.84 in 10.0 mi SE 12.7 mph - N/A   Clear
2:35 AM 64.4 °F - 55.4 °F 73% 29.84 in 10.0 mi SE 10.4 mph - N/A   Clear
2:55 AM 64.4 °F - 55.4 °F 73% 29.85 in 10.0 mi SSE 13.8 mph - N/A   Clear
3:15 AM 64.4 °F - 55.4 °F 73% 29.85 in 10.0 mi SSE 11.5 mph - N/A   Clear
3:35 AM 64.4 °F - 55.4 °F 73% 29.85 in 10.0 mi SE 10.4 mph - N/A   Clear
3:55 AM 64.4 °F - 55.4 °F 73% 29.85 in 10.0 mi SSE 10.4 mph - N/A   Clear
4:15 AM 64.4 °F - 55.4 °F 73% 29.85 in 10.0 mi SSE 10.4 mph - N/A   Clear
4:35 AM 64.4 °F - 55.4 °F 73% 29.86 in 10.0 mi SSE 10.4 mph - N/A   Clear
4:55 AM 62.6 °F - 55.4 °F 77% 29.86 in 10.0 mi SSE 11.5 mph - N/A   Clear
5:15 AM 62.6 °F - 55.4 °F 77% 29.86 in 10.0 mi SSE 10.4 mph - N/A   Clear
5:35 AM 62.6 °F - 55.4 °F 77% 29.86 in 10.0 mi SE 10.4 mph - N/A   Clear
5:55 AM 64.4 °F - 57.2 °F 77% 29.87 in 10.0 mi SE 9.2 mph - N/A   Clear
6:15 AM 64.4 °F - 57.2 °F 77% 29.87 in 10.0 mi SE 8.1 mph - N/A   Clear
6:35 AM 62.6 °F - 57.2 °F 82% 29.88 in 10.0 mi SE 9.2 mph - N/A   Clear
6:55 AM 64.4 °F - 57.2 °F 77% 29.88 in 10.0 mi SE 9.2 mph - N/A   Mostly Cloudy
7:15 AM 64.4 °F - 57.2 °F 77% 29.89 in 10.0 mi SE 11.5 mph - N/A   Overcast
7:35 AM 64.4 °F - 57.2 °F 77% 29.89 in 10.0 mi SE 11.5 mph - N/A   Mostly Cloudy
7:55 AM 66.2 °F - 57.2 °F 73% 29.89 in 10.0 mi SE 11.5 mph - N/A   Mostly Cloudy
8:15 AM 66.2 °F - 57.2 °F 73% 29.89 in 10.0 mi SE 13.8 mph - N/A   Scattered Clouds
8:35 AM 66.2 °F - 57.2 °F 73% 29.89 in 10.0 mi SE 15.0 mph - N/A   Clear
8:55 AM 68.0 °F - 57.2 °F 68% 29.89 in 10.0 mi SE 11.5 mph - N/A   Clear
9:15 AM 68.0 °F - 57.2 °F 68% 29.90 in 10.0 mi SSE 10.4 mph - N/A   Clear
9:35 AM 68.0 °F - 59.0 °F 73% 29.91 in 10.0 mi SE 9.2 mph - N/A   Clear
9:55 AM 69.8 °F - 57.2 °F 64% 29.91 in 10.0 mi SE 9.2 mph - N/A   Clear
10:15 AM 71.6 °F - 57.2 °F 60% 29.91 in 10.0 mi SE 10.4 mph - N/A   Clear
10:35 AM 73.4 °F - 57.2 °F 57% 29.91 in 10.0 mi SE 10.4 mph - N/A   Clear
10:55 AM 77.0 °F - 57.2 °F 50% 29.91 in 10.0 mi SSE 8.1 mph - N/A   Clear
11:15 AM 78.8 °F - 55.4 °F 44% 29.91 in 10.0 mi South 8.1 mph - N/A   Clear
11:35 AM 78.8 °F - 55.4 °F 44% 29.91 in 10.0 mi SSE 9.2 mph - N/A   Clear
11:55 AM 80.6 °F 80.5 °F 55.4 °F 42% 29.90 in 10.0 mi SE 8.1 mph - N/A   Clear
12:15 PM 82.4 °F 81.4 °F 53.6 °F 37% 29.90 in 10.0 mi SE 6.9 mph - N/A   Clear
12:35 PM 82.4 °F 81.4 °F 53.6 °F 37% 29.90 in 10.0 mi SSE 4.6 mph - N/A   Clear
12:55 PM 82.4 °F - 51.8 °F 35% 29.89 in 10.0 mi SW 6.9 mph - N/A   Clear
1:15 PM 86.0 °F - 51.8 °F 31% 29.89 in 10.0 mi SSW 6.9 mph - N/A   Clear
1:35 PM 86.0 °F - 51.8 °F 31% 29.88 in 10.0 mi South 9.2 mph - N/A   Clear
1:55 PM 86.0 °F - 50.0 °F 29% 29.88 in 10.0 mi WSW 5.8 mph - N/A   Clear
2:15 PM 86.0 °F - 50.0 °F 29% 29.88 in 10.0 mi SSW 11.5 mph - N/A   Clear
2:35 PM 87.8 °F - 50.0 °F 27% 29.88 in 10.0 mi SW 9.2 mph 18.4 mph N/A   Clear
2:55 PM 87.8 °F - 48.2 °F 25% 29.87 in 10.0 mi SSW 11.5 mph 16.1 mph N/A   Clear
3:15 PM 87.8 °F - 50.0 °F 27% 29.87 in 10.0 mi SW 11.5 mph 16.1 mph N/A   Clear
3:35 PM 87.8 °F - 51.8 °F 29% 29.86 in 10.0 mi West 8.1 mph 17.3 mph N/A   Clear
3:55 PM 87.8 °F - 51.8 °F 29% 29.85 in 10.0 mi SSW 8.1 mph 17.3 mph N/A   Clear
4:15 PM 87.8 °F - 51.8 °F 29% 29.85 in 10.0 mi SW 9.2 mph - N/A   Clear
4:35 PM 87.8 °F - 51.8 °F 29% 29.84 in 10.0 mi WSW 8.1 mph - N/A   Clear
4:55 PM 87.8 °F - 51.8 °F 29% 29.84 in 10.0 mi WSW 11.5 mph - N/A   Clear
5:15 PM 87.8 °F - 51.8 °F 29% 29.84 in 10.0 mi SW 11.5 mph - N/A   Clear
5:35 PM 87.8 °F - 51.8 °F 29% 29.83 in 10.0 mi SW 11.5 mph - N/A   Clear
5:55 PM 86.0 °F - 51.8 °F 31% 29.83 in 10.0 mi WSW 9.2 mph - N/A   Clear
6:15 PM 86.0 °F - 51.8 °F 31% 29.83 in 10.0 mi SW 10.4 mph - N/A   Clear
6:35 PM 84.2 °F - 51.8 °F 33% 29.83 in 10.0 mi SW 10.4 mph - N/A   Clear
6:55 PM 84.2 °F - 51.8 °F 33% 29.83 in 10.0 mi SW 8.1 mph - N/A   Clear
7:15 PM 82.4 °F - 51.8 °F 35% 29.83 in 10.0 mi SSW 6.9 mph - N/A   Clear
7:35 PM 80.6 °F 80.3 °F 53.6 °F 39% 29.83 in 10.0 mi SW 8.1 mph - N/A   Clear
7:55 PM 78.8 °F - 53.6 °F 42% 29.83 in 10.0 mi SW 6.9 mph - N/A   Clear
8:15 PM 78.8 °F - 55.4 °F 44% 29.84 in 10.0 mi SW 5.8 mph - N/A   Clear
8:35 PM 77.0 °F - 55.4 °F 47% 29.84 in 10.0 mi SSW 5.8 mph - N/A   Clear
8:55 PM 73.4 °F - 55.4 °F 53% 29.85 in 10.0 mi SSW 4.6 mph - N/A   Clear
9:15 PM 71.6 °F - 55.4 °F 57% 29.85 in 10.0 mi South 3.5 mph - N/A   Clear
9:35 PM 71.6 °F - 55.4 °F 57% 29.87 in 10.0 mi SW 4.6 mph - N/A   Clear
9:55 PM 71.6 °F - 55.4 °F 57% 29.88 in 10.0 mi SSW 6.9 mph - N/A   Clear
10:15 PM 69.8 °F - 55.4 °F 60% 29.88 in 10.0 mi SSW 5.8 mph - N/A   Clear
10:35 PM 68.0 °F - 55.4 °F 64% 29.89 in 10.0 mi SSE 4.6 mph - N/A   Clear
10:55 PM 69.8 °F - 55.4 °F 60% 29.89 in 10.0 mi SSE 5.8 mph - N/A   Clear
11:15 PM 69.8 °F - 55.4 °F 60% 29.89 in 10.0 mi South 5.8 mph - N/A   Clear
11:35 PM 68.0 °F - 55.4 °F 64% 29.89 in 10.0 mi SSE 5.8 mph - N/A   Clear
11:55 PM 68.0 °F - 53.6 °F 60% 29.89 in 10.0 mi South 5.8 mph - N/A   Clear